軌道要素
Epoch 2024 Mar. 31.0 TT = JDT 2460400.5
T 2023 Oct. 18.08549 TT Rudenko
q 0.9505053 (2000.0) P Q
z +0.0062134 Peri. 321.47059 -0.72158654 -0.26809499
+/-0.0000706 Node 137.01142 +0.57434651 +0.28299603
e 0.9940941 Incl. 110.58709 -0.38657335 +0.92088996
>From 260 observations 2023 Nov. 1-2024 Jan. 29, mean residual 0".6.
|